Find STARLINK-37463

NORAD ID: 68854 Int'l Des: 2026-094R Owner: starlink Country: USA Constellation: starlink operational
LEOCIRCULARRETROGRADE

リアルタイム位置

3D地球を読み込み中...

STARLINK-37463について

説明を読み込み中...

次回通過

Passes for default location (London). Set your location on the main map for personalized predictions.

高度履歴

Loading altitude history...

軌道要素

1 68854U 26094R 26121.91668981 -.01697222 89943-3 -29336-2 0 9994
2 68854 97.2819 135.5328 0001305 64.6921 169.5330 16.02461056 1923
Epoch: May 1, 2026 • Age: 5 hours

現在のステータス

高度 284.9 km
速度 7.73 km/s
衛星直下点 -39.68°S, 121.08°W
タイプ internet

Most Searched